When you browse on this site, cookies collect data to enhance your experience and personalize the content and advertising you see.
Visit our Privacy Policy to learn more. By continuing to use the site, you agree to this use of cookies and data.
  • In France
  • List of Countries
  • For 7 days
  • Water Temperature
  • Satellite Maps
  • Weather Map
  • Weather Widgets
  • user-avatar
    Login

    Hourly Weather Córdoba

    Today, 19 January, Saturday

    Time Temperature Precipitation Wind Pressure Humidity
    00:00 +16°C° 0 mm 1 mps 728 mmHg 69%
    01:00 +16°C° 0 mm 1 mps 728 mmHg 70%
    02:00 +14°C° 0 mm 0 mps 728 mmHg 71%
    03:00 +14°C° 0 mm 0 mps 728 mmHg 73%
    04:00 +14°C° 0 mm 0 mps 728 mmHg 74%
    05:00 +13°C° 0 mm 0 mps 728 mmHg 76%
    06:00 +16°C° 0 mm 1 mps 728 mmHg 71%
    07:00 +19°C° 0 mm 1 mps 728 mmHg 66%
    08:00 +20°C° 0 mm 2 mps 729 mmHg 62%
    09:00 +23°C° 0 mm 2 mps 729 mmHg 55%
    10:00 +24°C° 0 mm 3 mps 728 mmHg 48%
    11:00 +26°C° 0 mm 4 mps 728 mmHg 42%
    12:00 +27°C° 0 mm 4 mps 728 mmHg 40%
    13:00 +28°C° 0 mm 4 mps 727 mmHg 37%
    14:00 +29°C° 0 mm 5 mps 727 mmHg 35%
    15:00 +29°C° 0 mm 5 mps 726 mmHg 36%
    16:00 +28°C° 0 mm 5 mps 726 mmHg 37%
    17:00 +28°C° 0 mm 5 mps 725 mmHg 38%
    18:00 +26°C° 0 mm 5 mps 725 mmHg 44%
    19:00 +22°C° 0 mm 4 mps 725 mmHg 50%
    20:00 +20°C° 0 mm 3 mps 725 mmHg 56%
    21:00 +19°C° 0 mm 3 mps 726 mmHg 61%
    22:00 +18°C° 0 mm 2 mps 726 mmHg 67%
    23:00 +17°C° 0 mm 2 mps 727 mmHg 72%

    Tomorrow, 20 January, Sunday

    Time Temperature Precipitation Wind Pressure Humidity
    00:00 +17°C° 0 mm 2 mps 726 mmHg 77%
    01:00 +17°C° 0 mm 2 mps 726 mmHg 83%
    02:00 +16°C° 0 mm 2 mps 726 mmHg 88%
    03:00 +16°C° 0 mm 2 mps 725 mmHg 89%
    04:00 +16°C° 0 mm 2 mps 725 mmHg 90%
    05:00 +16°C° 0 mm 2 mps 725 mmHg 91%
    06:00 +17°C° 0 mm 2 mps 725 mmHg 84%
    07:00 +19°C° 0 mm 3 mps 725 mmHg 77%
    08:00 +20°C° 0 mm 4 mps 725 mmHg 70%
    09:00 +22°C° 0 mm 4 mps 725 mmHg 63%
    10:00 +25°C° 0 mm 5 mps 725 mmHg 56%
    11:00 +27°C° 0 mm 5 mps 724 mmHg 49%
    12:00 +28°C° 0 mm 5 mps 724 mmHg 46%
    13:00 +29°C° 0 mm 6 mps 723 mmHg 44%
    14:00 +30°C° 0 mm 6 mps 723 mmHg 41%
    15:00 +30°C° 0 mm 6 mps 722 mmHg 41%
    16:00 +30°C° 0 mm 6 mps 721 mmHg 41%
    17:00 +30°C° 0 mm 6 mps 721 mmHg 42%
    18:00 +28°C° 0 mm 5 mps 721 mmHg 51%
    19:00 +26°C° 0 mm 4 mps 721 mmHg 60%
    20:00 +23°C° 0 mm 4 mps 721 mmHg 70%
    21:00 +22°C° 0 mm 3 mps 722 mmHg 74%
    22:00 +21°C° 0 mm 3 mps 722 mmHg 79%
    23:00 +20°C° 0 mm 3 mps 723 mmHg 84%

    Day after tomorrow, 21 January, Monday

    Time Temperature Precipitation Wind Pressure Humidity
    00:00 +20°C° 0 mm 3 mps 722 mmHg 85%
    01:00 +20°C° 0 mm 3 mps 722 mmHg 86%
    02:00 +19°C° 0 mm 3 mps 722 mmHg 88%
    03:00 +19°C° 0 mm 2 mps 722 mmHg 87%
    04:00 +19°C° 0 mm 2 mps 722 mmHg 87%
    05:00 +19°C° 0 mm 2 mps 722 mmHg 87%
    06:00 +21°C° 0 mm 2 mps 722 mmHg 78%
    07:00 +24°C° 0 mm 2 mps 723 mmHg 69%
    08:00 +26°C° 0 mm 2 mps 723 mmHg 60%
    09:00 +28°C° 0 mm 2 mps 723 mmHg 53%
    10:00 +30°C° 0 mm 3 mps 724 mmHg 45%
    11:00 +34°C° 0 mm 3 mps 724 mmHg 38%
    12:00 +35°C° 0 mm 3 mps 723 mmHg 35%
    13:00 +36°C° 0 mm 3 mps 723 mmHg 33%
    14:00 +37°C° 0 mm 4 mps 722 mmHg 30%
    15:00 +36°C° 0 mm 4 mps 721 mmHg 32%
    16:00 +36°C° 0 mm 4 mps 721 mmHg 34%
    17:00 +36°C° 0 mm 5 mps 720 mmHg 36%
    18:00 +34°C° 0 mm 4 mps 720 mmHg 43%
    19:00 +30°C° 0 mm 4 mps 721 mmHg 51%
    20:00 +28°C° 0 mm 3 mps 721 mmHg 58%
    21:00 +27°C° 0 mm 3 mps 721 mmHg 63%
    22:00 +26°C° 0 mm 3 mps 721 mmHg 67%
    23:00 +25°C° 0 mm 2 mps 722 mmHg 72%

    22 January, Tuesday

    Time Temperature Precipitation Wind Pressure Humidity
    00:00 +25°C° 0 mm 2 mps 721 mmHg 74%
    01:00 +24°C° 0 mm 2 mps 721 mmHg 75%
    02:00 +24°C° 0 mm 2 mps 720 mmHg 77%
    03:00 +24°C° 0 mm 2 mps 720 mmHg 78%
    04:00 +23°C° 0 mm 2 mps 720 mmHg 79%
    05:00 +23°C° 0 mm 2 mps 720 mmHg 81%
    06:00 +25°C° 0 mm 2 mps 720 mmHg 72%
    07:00 +27°C° 0 mm 3 mps 721 mmHg 64%
    08:00 +29°C° 0 mm 4 mps 721 mmHg 55%
    09:00 +32°C° 0 mm 4 mps 721 mmHg 49%
    10:00 +34°C° 0 mm 5 mps 721 mmHg 43%
    11:00 +38°C° 0 mm 6 mps 721 mmHg 37%
    12:00 +39°C° 0 mm 6 mps 720 mmHg 35%
    13:00 +40°C° 0 mm 6 mps 720 mmHg 33%
    14:00 +41°C° 0 mm 6 mps 719 mmHg 30%
    15:00 +41°C° 0 mm 6 mps 719 mmHg 31%
    16:00 +40°C° 0 mm 6 mps 718 mmHg 32%
    17:00 +40°C° 0 mm 6 mps 718 mmHg 32%
    18:00 +37°C° 0 mm 5 mps 718 mmHg 39%
    19:00 +35°C° 0 mm 4 mps 719 mmHg 46%
    20:00 +33°C° 0 mm 3 mps 719 mmHg 52%
    21:00 +30°C° 0.2 mm 2 mps 720 mmHg 59%
    22:00 +29°C° 0.2 mm 1 mps 720 mmHg 65%
    23:00 +26°C° 0.2 mm 0 mps 720 mmHg 72%

    23 January, Wednesday

    Time Temperature Precipitation Wind Pressure Humidity
    00:00 +25°C° 0.7 mm 0 mps 720 mmHg 74%
    01:00 +25°C° 0.7 mm 0 mps 720 mmHg 77%
    02:00 +24°C° 0.7 mm 0 mps 720 mmHg 79%
    03:00 +26°C° 0.2 mm 1 mps 720 mmHg 79%
    04:00 +26°C° 0.2 mm 1 mps 720 mmHg 80%
    05:00 +26°C° 0.2 mm 1 mps 720 mmHg 80%
    06:00 +27°C° 0.1 mm 1 mps 720 mmHg 76%
    07:00 +29°C° 0.1 mm 2 mps 721 mmHg 72%
    08:00 +30°C° 0.1 mm 2 mps 721 mmHg 69%
    09:00 +32°C° 0 mm 2 mps 721 mmHg 62%
    10:00 +35°C° 0 mm 3 mps 722 mmHg 56%
    11:00 +37°C° 0 mm 3 mps 722 mmHg 49%
    12:00 +36°C° 2.6 mm 4 mps 721 mmHg 53%
    13:00 +35°C° 2.6 mm 4 mps 721 mmHg 57%
    14:00 +35°C° 2.6 mm 4 mps 720 mmHg 61%
    15:00 +34°C° 2.7 mm 4 mps 720 mmHg 62%
    16:00 +34°C° 2.7 mm 4 mps 720 mmHg 63%
    17:00 +34°C° 2.7 mm 4 mps 720 mmHg 65%
    18:00 +31°C° 0 mm 3 mps 720 mmHg 69%
    19:00 +30°C° 0 mm 3 mps 720 mmHg 73%
    20:00 +29°C° 0 mm 2 mps 720 mmHg 78%
    21:00 +28°C° 0.1 mm 2 mps 720 mmHg 80%
    22:00 +28°C° 0.1 mm 2 mps 721 mmHg 83%
    23:00 +27°C° 0.1 mm 2 mps 721 mmHg 85%

    24 January, Thursday

    Time Temperature Precipitation Wind Pressure Humidity
    00:00 +27°C° 0 mm 2 mps 721 mmHg 86%
    01:00 +27°C° 0 mm 2 mps 721 mmHg 87%
    02:00 +27°C° 0 mm 2 mps 720 mmHg 88%
    03:00 +26°C° 0.7 mm 1 mps 720 mmHg 88%
    04:00 +26°C° 0.7 mm 1 mps 720 mmHg 89%
    05:00 +26°C° 0.7 mm 1 mps 720 mmHg 89%
    06:00 +27°C° 0.1 mm 2 mps 720 mmHg 86%
    07:00 +27°C° 0.1 mm 3 mps 720 mmHg 83%
    08:00 +28°C° 0.1 mm 3 mps 720 mmHg 79%
    09:00 +30°C° 0 mm 4 mps 720 mmHg 72%
    10:00 +33°C° 0 mm 4 mps 720 mmHg 65%
    11:00 +34°C° 0 mm 5 mps 720 mmHg 58%
    12:00 +36°C° 0 mm 5 mps 719 mmHg 53%
    13:00 +39°C° 0 mm 6 mps 718 mmHg 48%
    14:00 +40°C° 0 mm 6 mps 718 mmHg 43%
    15:00 +40°C° 0 mm 7 mps 717 mmHg 41%
    16:00 +41°C° 0 mm 7 mps 717 mmHg 40%
    17:00 +41°C° 0 mm 7 mps 716 mmHg 38%
    18:00 +39°C° 0 mm 6 mps 716 mmHg 43%
    19:00 +36°C° 0 mm 5 mps 716 mmHg 48%
    20:00 +34°C° 0 mm 4 mps 716 mmHg 53%
    21:00 +34°C° 0 mm 4 mps 716 mmHg 56%
    22:00 +33°C° 0 mm 3 mps 716 mmHg 58%
    23:00 +31°C° 0 mm 3 mps 716 mmHg 61%
    Show more